Change the Weather History Date:

Thursday, October 31, 2013

  Actual Average Record
Temperature  
Mean Temperature 70 °F -  
Max Temperature 77 °F 67 °F 84 °F (2004)
Min Temperature 62 °F 54 °F 48 °F (2006)
Cooling Degree Days 4    
Growing Degree Days 20 (Base 50)    
Moisture  
Dew Point 58 °F    
Average Humidity 70    
Maximum Humidity 94    
Minimum Humidity 28    
Precipitation  
Precipitation 0.12 in 0.09 in - ()
Sea Level Pressure  
Sea Level Pressure 30.05 in    
Wind  
Wind Speed 3 mph ()    
Max Wind Speed 12 mph    
Max Gust Speed -    
Visibility 6.7 miles    
Events Rain , Thunderstorm    
Averages and records for this station are not official NWS values.
T = Trace of Precipitation, MM = Missing Value Source: Averaged Metar Reports

Daily Weather History Graph

Daily Weather History Graph

Search for Another Location

Airport or City:

Trip Planner

Search our weather history database for the weather conditions in past years. The results will help you decide how hot, cold, wet, or windy it might be!

Date:

Astronomy

Oct. 31, 2013 Rise Set
Actual Time 6:34 AM CET 5:12 PM CET
Civil Twilight 6:07 AM CET 5:39 PM CET
Nautical Twilight 5:36 AM CET 6:10 PM CET
Astronomical Twilight 5:05 AM CET 6:41 PM CET
Moon 3:09 AM CET (10/31) 3:18 PM CET (10/31)
Length of Visible Light 11h 32m
Length of Day
10h 37m
Waning Crescent, 11% of the Moon is Illuminated
Oct 31
Waning Crescent
Nov 3
New
Nov 10
First Quarter
Nov 17
Full
Nov 25
Last Quarter

Hourly Weather History & Observations

Time (CET) Temp. Dew Point Humidity Pressure Visibility Wind Dir Wind Speed Gust Speed Precip Events Conditions
12:55 AM 64.4 °F 59.0 °F 83% 30.01 in 6.2 mi East 2.3 mph - N/A   Scattered Clouds
1:00 AM 64 °F 60 °F 81% 30.01 in 7 mi East 2.3 mph - -   Partly Cloudy
1:55 AM 64.4 °F 59.0 °F 83% 30.01 in 6.2 mi ESE 2.3 mph - N/A   Scattered Clouds
2:55 AM 64.4 °F 59.0 °F 83% 30.01 in 6.2 mi East 2.3 mph - N/A   Scattered Clouds
3:55 AM 64.4 °F 60.8 °F 88% 30.01 in 6.2 mi Calm Calm - N/A   Scattered Clouds
4:55 AM 64.4 °F 60.8 °F 88% 30.01 in 6.2 mi SE 3.5 mph - N/A   Scattered Clouds
5:55 AM 66.2 °F 59.0 °F 78% 30.01 in 6.2 mi ESE 4.6 mph - N/A   Scattered Clouds
6:55 AM 68.0 °F 57.2 °F 68% 29.98 in 6.2 mi East 11.5 mph - N/A Rain Rain
7:00 AM 67 °F 57 °F 63% 29.98 in 7 mi East 11.5 mph - - Rain Light Rain
7:55 AM 68.0 °F 60.8 °F 78% 30.04 in 6.2 mi WSW 4.6 mph - N/A   Scattered Clouds
8:55 AM 68.0 °F 62.6 °F 83% 30.04 in 6.2 mi West 1.2 mph - N/A   Partly Cloudy
9:55 AM 71.6 °F 55.4 °F 57% 30.06 in 6.2 mi SSW 3.5 mph - N/A   Scattered Clouds
10:55 AM 73.4 °F 57.2 °F 57% 30.09 in 6.2 mi West 2.3 mph - N/A   Partly Cloudy
11:55 AM 73.4 °F 57.2 °F 57% 30.06 in 6.2 mi SSW 2.3 mph - N/A   Partly Cloudy
12:55 PM 77.0 °F 50.0 °F 39% 30.06 in 6.2 mi SSE 9.2 mph - N/A   Partly Cloudy
1:00 PM 77 °F 50 °F 28% 30.07 in 19 mi SSE 9.2 mph - -   Partly Cloudy
1:55 PM 73.4 °F 60.8 °F 65% 30.06 in 6.2 mi WNW 4.6 mph - N/A   Scattered Clouds
2:55 PM 73.4 °F 60.8 °F 65% 30.06 in 6.2 mi NW 4.6 mph - N/A   Partly Cloudy
3:55 PM 75.2 °F 50.0 °F 41% 30.06 in 6.2 mi SSE 9.2 mph - N/A   Partly Cloudy
4:55 PM 75.2 °F 53.6 °F 47% 30.06 in 6.2 mi SSE 6.9 mph - N/A   Partly Cloudy
5:55 PM 68.0 °F 55.4 °F 64% 30.06 in 6.2 mi NE 1.2 mph - N/A   Partly Cloudy
6:55 PM 68.0 °F 55.4 °F 64% 30.09 in 6.2 mi East 1.2 mph - N/A   Partly Cloudy
7:00 PM 68 °F 56 °F 56% 30.10 in 7 mi East 1.2 mph - -   Scattered Clouds
7:55 PM 64.4 °F 55.4 °F 73% 30.09 in 6.2 mi SE 1.2 mph - N/A   Partly Cloudy
8:55 PM 66.2 °F 59.0 °F 78% 30.09 in 6.2 mi East 1.2 mph - N/A   Scattered Clouds
9:55 PM 64.4 °F 59.0 °F 83% 30.09 in 6.2 mi East 1.2 mph - N/A   Scattered Clouds
10:27 PM 62.6 °F 59.0 °F 88% 30.09 in 6.2 mi SE 2.3 mph - N/A Thunderstorm Thunderstorm
10:55 PM 64.4 °F 60.8 °F 88% 30.09 in 6.2 mi East 3.5 mph - N/A Thunderstorm Thunderstorm
11:55 PM 62.6 °F 60.8 °F 94% 30.12 in 6.2 mi NW 8.1 mph - N/A Rain , Thunderstorm Light Thunderstorms and Rain